Regional Weather Roundup
Issued by NWS

Home | Current Version | Previous Version | Graphics & Text | Print | Product List | Glossary On
Versions: 1 2 3 4 5 6 7 8 9 10 11 12 13 14 15 16 17 18 19 20 21 22 23 24 25 26 27 28 29 30 31 32 33 34 35 36 37 38 39 40 41 42 43 44 45 46 47 48 49 50
000
ASUS45 KSLC 180010
RWRUT

UTAH REGIONAL WEATHER ROUNDUP
NATIONAL WEATHER SERVICE SALT LAKE CITY UT
500 PM MST SUN DEC 17 2017

UTZ001>011-023>025-180100-

NORTHERN UTAH

CITY           SKY/WX    TMP DP  RH WIND       PRES   REMARKS
BRIGHAM CITY   CLOUDY    32  22  68 S5        30.22S WCI  27
HILL AFB       CLEAR     29  22  75 W6        30.20S WCI  23
LOGAN          CLOUDY    33  21  61 S6        30.20S WCI  28
OGDEN          CLEAR     31  21  66 W5        30.20S WCI  26
SALT LAKE CITY MOCLDY    35  25  66 W6        30.22R WCI  30
TOOELE VALLEY  CLEAR     28  25  86 CALM      30.23S
WENDOVER       CLEAR     33  17  51 CALM      30.23R
HEBER CITY     MOCLDY    30  19  64 SW10G17   30.15R WCI  21
WEST JORDAN    PTCLDY    30  25  81 W3        30.22R

$$

UTZ011>015-024>027-180100-

CENTRAL/NORTHEAST UTAH

CITY           SKY/WX    TMP DP  RH WIND       PRES   REMARKS
PROVO AIRPORT  PTCLDY    32  24  72 NW7       30.22R WCI  26
MOAB/CANYONLAN CLEAR     40  11  30 NW3       30.03R
DELTA          CLEAR     32  19  59 CALM      30.20S
PRICE          CLEAR     36  13  38 NW14      30.04R WCI  27
RICHFIELD        N/A     34  18  51 NE10      30.17R WCI  26
ROOSEVELT      CLOUDY    36  18  48 SE3       30.07R
VERNAL         CLEAR     37  18  46 CALM      30.05R

$$

UTZ013>016-019>022-027-180100-

SOUTHERN UTAH

CITY           SKY/WX    TMP DP  RH WIND       PRES   REMARKS
BRYCE CANYON   CLEAR     32  16  51 N6        30.06R WCI  26
CEDAR CITY     CLOUDY    31  20  63 N12       30.13R WCI  22
MILFORD        CLEAR     31  21  66 NE13      30.18R WCI  21
ST GEORGE      CLEAR     49  21  33 NE10      30.07R
HANKSVILLE     CLEAR     43  19  39 CALM      30.07R
KANAB          CLEAR     46   9  21 E6        30.06R
BLANDING         N/A     40   4  22 S3        30.09R

$$

REGIONAL REPORTS     COLORADO/ARIZONA

CITY           SKY/WX    TMP DP  RH WIND       PRES   REMARKS
CRAIG, CO      CLEAR     24  16  71 CALM      30.05S
GRAND JUNCTION CLEAR     39  11  31 NW5       30.03R
RIFLE, CO      CLEAR     34  10  37 S7        30.02R WCI  28
MONTROSE, CO   CLEAR     34   6  31 N3        30.05R
CORTEZ, CO     CLEAR     39   8  27 VRB6      30.01R WCI  35
COLORADO CITY    N/A     43  19  39 NW12      30.05S
PAGE, AZ       CLEAR     44  15  31 NE3       30.03R
GRAND CANYON   CLEAR     41   5  22 NE10      30.02R
KINGMAN, AZ    CLEAR     49  19  30 N14G21    30.00R
FLAGSTAFF, AZ  CLEAR     38  13  35 E7        30.01R WCI  33

$$

REGIONAL REPORTS    NEVADA/IDAHO/WYOMING

CITY           SKY/WX    TMP DP  RH WIND       PRES   REMARKS
LAS VEGAS, NV  PTCLDY    56  17  21 NW15      30.06R
ELY, NY        CLEAR     30  15  53 N3        30.13S
ELKO, NV       PTCLDY    32  19  58 W7        30.20R WCI  26
POCATELLO, ID  CLOUDY    27  19  72 CALM      30.22R
BURLEY, ID     CLOUDY    35  18  49 W5        30.19R WCI  31
FORT BRIDGER,    N/A     26  15  63 W8        30.11S WCI  17
EVANSTON, WY   CLOUDY    24  16  71 SW12      30.11R WCI  13
ROCK SPRINGS,  CLOUDY    25  14  63 W23       30.03R WCI  10

$$



USA.gov is the U.S. government's official web portal to all federal, state and local government web resources and services.